Location: Peebles
(55.6412°N, 3.1714°W)
Time: 15:45:28
(UTC+01:00)

SJ 16-02 - Pass Details

Date: 26 September 2021
Orbit: 605 x 617 km, 75.0° (Epoch: 18 October)

Event Time Altitude Azimuth Distance (km) Brightness Sun altitude
Rises 21:29:32 0° 220° (SW) 2,879 4.9 -21.0°
Reaches altitude 10° 21:31:49 10° 225° (SW) 1,979 4.1 -21.2°
Maximum altitude 21:36:08 51° 302° (WNW) 782 2.2 -21.8°
Drops below altitude 10° 21:40:29 10° 19° (NNE) 1,995 4.1 -22.3°
Sets 21:42:48 0° 25° (NNE) 2,904 4.9 -22.6°
